Regional Weather Roundup
Issued by NWS New Orleans/Baton Rouge, LA

Home | Current Version | Previous Version | Text Only | Print | Product List | Glossary On
Versions: 1 2 3 4 5 6 7 8 9 10 11 12 13 14 15 16 17 18 19 20 21 22 23 24 25 26 27 28 29 30 31 32 33 34 35 36 37 38 39 40 41 42 43 44 45 46 47 48 49 50
000
ASUS44 KLIX 030112
RWRLIX
NEW ORLEANS REGIONAL WEATHER ROUNDUP
NATIONAL WEATHER SERVICE NEW ORLEANS LA
800 PM CDT SUN AUG 02 2015

NOTE: "FAIR" INDICATES FEW OR NO CLOUDS BELOW 12,000 FEET WITH NO
      SIGNIFICANT WEATHER AND/OR OBSTRUCTIONS TO VISIBILITY.
      SKY/WX - SKY CONDITION AND SIGNIFICANT WEATHER.
      TMP - AIR TEMPERATURE.     DP    - DEWPOINT TEMPERATURE.
      RH  - RELATIVE HUMIDITY.   PRES  - PRESSURE.
      HI  - HEAT INDEX.          WCI   - WIND CHILL INDEX.

*  THESE STATIONS ARE NOT NWS OR FAA STATIONS AND ARE NOT UNDER
   NWS QUALITY CONTROL.

LAZ038-040-048-061>063-065>067-069-030200-
SOUTHEAST LOUISIANA

CITY           SKY/WX    TMP DP  RH WIND       PRES   REMARKS
N.O. AUDUBON   NOT AVBL
N.O. INTL ARPT MOCLDY    88  65  46 S8        29.85S
N.O. LAKEFRONT CLEAR     89  66  46 S7        29.86R
N.O. DOWNTOWN*   N/A     93  64  38 S7        29.87R HX  95
RESERVE*         N/A     84  70  62 CALM      29.86S
SLIDELL        CLEAR     84  72  67 CALM      29.85S
BATON ROUGE    CLEAR     87  68  52 CALM      29.85S
BOOTHVILLE     CLEAR     86  77  74 S6        29.87S HX  97
BELLE CHASSE   CLEAR     80  74  81 CALM      29.86R
BOGALUSA*        N/A     89  68  49 CALM      29.87R
GALLIANO*      NOT AVBL
NEW ROADS*       N/A    N/A N/A N/A CALM      29.86S
GONZALES*        N/A     82  73  73 CALM      29.85R
HAMMOND*       CLEAR     88  63  42 CALM      29.88R
HOUMA*         CLEAR     85  74  71 S5        29.86S
PORT FOURCHON* CLEAR     86  77  74 SW5       29.88R HX  97

$$

MSZ070-080>082-030200-
SOUTHERN MISSISSIPPI

CITY           SKY/WX    TMP DP  RH WIND       PRES   REMARKS
MCCOMB         CLOUDY    88  71  57 CALM      29.87R
GULFPORT       MOCLDY    87  74  64 CALM      29.85R HX  95
BILOXI         PTCLDY    84  74  72 SW3       29.85R
PASCAGOULA     PTCLDY    84  77  79 W3        29.85R
STENNIS ARPT*  CLEAR     82  70  65 CALM      29.86S

$$

COASTAL OBSERVATIONS
LAKE AND NEARSHORE STATIONS

STATION/POSITION TIME  TEMP    WIND        PRES    WAVE
                       AIR SEA DIR/SP/G            HT/PER
                 (UTC) (F)     (DEG/KT/KT) (MB)    (FT/S)
PASCAGOULA       0000   88     240/  7/ 10 1010.4
WAVELAND YACHT   0000   89 87  230/  6/  7 1011.2
GRAND ISLE       0000   88 91  200/  5/  7 1011.7
SOUTHWEST PASS   0000   87 87  210/  8/ 11 1011.8
NEW CANAL        0000   93 89     CALM     1010.1
SHELL BEACH      0000   89 91  180/  5/  8 1010.7

OFFSHORE STATIONS

STATION/POSITION TIME  TEMP    WIND        PRES    WAVE
                       AIR SEA DIR/SP/G            HT/PER
                 (UTC) (F)     (DEG/KT/KT) (MB)    (FT/S)
64 S DAUPHIN ISL 0050   85 89  240/ 12/ 14 1011.3    2/ 5

$$




USA.gov is the U.S. government's official web portal to all federal, state and local government web resources and services.